• In Hungary
  • List of Countries
  • For 7 days
  • Water Temperature
  • Satellite Maps
  • Weather Map
  • News
  • Weather Widgets
  • user-avatar
    Login

    Hourly Weather Razgrad

    Today, 12 December, Tuesday

    Time Temperature Precipitation Wind Pressure Humidity
    00:00 +4°C° 0 mm 2 mps 742 mmHg 76%
    01:00 +4°C° 0 mm 2 mps 743 mmHg 76%
    02:00 +5°C° 0 mm 1 mps 742 mmHg 78%
    03:00 +4°C° 0 mm 2 mps 742 mmHg 77%
    04:00 +4°C° 0 mm 2 mps 742 mmHg 76%
    05:00 +4°C° 0 mm 2 mps 742 mmHg 74%
    06:00 +4°C° 0 mm 2 mps 742 mmHg 72%
    07:00 +4°C° 0 mm 2 mps 742 mmHg 69%
    08:00 +4°C° 0 mm 2 mps 742 mmHg 64%
    09:00 +6°C° 0 mm 2 mps 742 mmHg 60%
    10:00 +8°C° 0 mm 2 mps 742 mmHg 55%
    11:00 +10°C° 0 mm 2 mps 742 mmHg 51%
    12:00 +12°C° 0 mm 2 mps 742 mmHg 49%
    13:00 +13°C° 0 mm 2 mps 743 mmHg 47%
    14:00 +14°C° 0 mm 2 mps 743 mmHg 46%
    15:00 +13°C° 0 mm 2 mps 743 mmHg 50%
    16:00 +10°C° 0 mm 2 mps 743 mmHg 54%
    17:00 +10°C° 0 mm 1 mps 743 mmHg 58%
    18:00 +10°C° 0 mm 1 mps 743 mmHg 58%
    19:00 +10°C° 0 mm 1 mps 743 mmHg 59%
    20:00 +9°C° 0 mm 1 mps 743 mmHg 60%
    21:00 +9°C° 0 mm 1 mps 743 mmHg 61%
    22:00 +9°C° 0 mm 1 mps 743 mmHg 62%
    23:00 +9°C° 0 mm 1 mps 743 mmHg 63%

    Tomorrow, 13 December, Wednesday

    Time Temperature Precipitation Wind Pressure Humidity
    00:00 +9°C° 0 mm 1 mps 743 mmHg 64%
    01:00 +8°C° 0 mm 1 mps 743 mmHg 64%
    02:00 +8°C° 0 mm 1 mps 743 mmHg 65%
    03:00 +8°C° 0 mm 1 mps 743 mmHg 66%
    04:00 +8°C° 0 mm 1 mps 743 mmHg 66%
    05:00 +8°C° 0 mm 1 mps 743 mmHg 67%
    06:00 +8°C° 0 mm 1 mps 743 mmHg 68%
    07:00 +8°C° 0 mm 1 mps 743 mmHg 69%
    08:00 +8°C° 0 mm 1 mps 743 mmHg 69%
    09:00 +9°C° 0 mm 1 mps 743 mmHg 65%
    10:00 +11°C° 0 mm 1 mps 743 mmHg 60%
    11:00 +13°C° 0 mm 1 mps 743 mmHg 56%
    12:00 +13°C° 0 mm 1 mps 743 mmHg 54%
    13:00 +14°C° 0 mm 1 mps 742 mmHg 53%
    14:00 +15°C° 0 mm 1 mps 742 mmHg 52%
    15:00 +14°C° 0 mm 1 mps 742 mmHg 57%
    16:00 +12°C° 0 mm 1 mps 741 mmHg 62%
    17:00 +11°C° 0 mm 1 mps 741 mmHg 67%
    18:00 +11°C° 0 mm 1 mps 741 mmHg 68%
    19:00 +11°C° 0 mm 1 mps 741 mmHg 69%
    20:00 +10°C° 0 mm 1 mps 741 mmHg 70%
    21:00 +10°C° 0 mm 1 mps 740 mmHg 70%
    22:00 +10°C° 0 mm 1 mps 740 mmHg 70%
    23:00 +10°C° 0 mm 1 mps 740 mmHg 70%

    Day after tomorrow, 14 December, Thursday

    Time Temperature Precipitation Wind Pressure Humidity
    00:00 +10°C° 0 mm 1 mps 739 mmHg 70%
    01:00 +10°C° 0 mm 1 mps 739 mmHg 70%
    02:00 +10°C° 0 mm 1 mps 739 mmHg 71%
    03:00 +9°C° 0.1 mm 1 mps 739 mmHg 74%
    04:00 +9°C° 0.1 mm 1 mps 739 mmHg 77%
    05:00 +9°C° 0.1 mm 1 mps 738 mmHg 80%
    06:00 +9°C° 0.2 mm 1 mps 739 mmHg 83%
    07:00 +8°C° 0.2 mm 1 mps 739 mmHg 87%
    08:00 +7°C° 0.2 mm 2 mps 739 mmHg 91%
    09:00 +8°C° 0 mm 2 mps 739 mmHg 87%
    10:00 +8°C° 0 mm 3 mps 740 mmHg 84%
    11:00 +9°C° 0 mm 3 mps 740 mmHg 80%
    12:00 +10°C° 0 mm 3 mps 739 mmHg 74%
    13:00 +11°C° 0 mm 3 mps 739 mmHg 68%
    14:00 +11°C° 0 mm 4 mps 739 mmHg 62%
    15:00 +10°C° 0 mm 3 mps 739 mmHg 66%
    16:00 +9°C° 0 mm 2 mps 739 mmHg 70%
    17:00 +9°C° 0 mm 1 mps 739 mmHg 73%
    18:00 +8°C° 0 mm 2 mps 740 mmHg 75%
    19:00 +7°C° 0 mm 2 mps 740 mmHg 77%
    20:00 +7°C° 0 mm 2 mps 740 mmHg 78%
    21:00 +7°C° 0 mm 2 mps 740 mmHg 80%
    22:00 +7°C° 0 mm 2 mps 740 mmHg 81%
    23:00 +7°C° 0 mm 2 mps 740 mmHg 82%

    15 December, Friday

    Time Temperature Precipitation Wind Pressure Humidity
    00:00 +6°C° 0 mm 2 mps 740 mmHg 83%
    01:00 +6°C° 0 mm 2 mps 740 mmHg 84%
    02:00 +6°C° 0 mm 2 mps 740 mmHg 86%
    03:00 +6°C° 0 mm 2 mps 739 mmHg 85%
    04:00 +6°C° 0 mm 2 mps 739 mmHg 85%
    05:00 +6°C° 0 mm 2 mps 739 mmHg 85%
    06:00 +6°C° 0 mm 2 mps 739 mmHg 84%
    07:00 +6°C° 0 mm 2 mps 739 mmHg 84%
    08:00 +6°C° 0 mm 2 mps 739 mmHg 83%
    09:00 +8°C° 0 mm 2 mps 739 mmHg 77%
    10:00 +9°C° 0 mm 2 mps 739 mmHg 71%
    11:00 +12°C° 0 mm 2 mps 739 mmHg 64%
    12:00 +13°C° 0 mm 2 mps 739 mmHg 61%
    13:00 +13°C° 0 mm 3 mps 738 mmHg 59%
    14:00 +14°C° 0 mm 3 mps 738 mmHg 56%
    15:00 +12°C° 0 mm 3 mps 737 mmHg 61%
    16:00 +11°C° 0 mm 3 mps 737 mmHg 66%
    17:00 +10°C° 0 mm 2 mps 737 mmHg 72%
    18:00 +9°C° 0 mm 2 mps 737 mmHg 72%
    19:00 +9°C° 0 mm 2 mps 737 mmHg 73%
    20:00 +9°C° 0 mm 2 mps 737 mmHg 74%
    21:00 +9°C° 0 mm 3 mps 737 mmHg 75%
    22:00 +9°C° 0 mm 3 mps 737 mmHg 76%
    23:00 +9°C° 0 mm 3 mps 736 mmHg 77%

    16 December, Saturday

    Time Temperature Precipitation Wind Pressure Humidity
    00:00 +8°C° 0 mm 3 mps 736 mmHg 78%
    01:00 +8°C° 0 mm 3 mps 736 mmHg 79%
    02:00 +8°C° 0 mm 3 mps 736 mmHg 79%
    03:00 +8°C° 0 mm 3 mps 736 mmHg 79%
    04:00 +8°C° 0 mm 3 mps 735 mmHg 78%
    05:00 +7°C° 0 mm 4 mps 735 mmHg 77%
    06:00 +7°C° 0 mm 4 mps 735 mmHg 77%
    07:00 +8°C° 0 mm 3 mps 735 mmHg 78%
    08:00 +8°C° 0 mm 3 mps 735 mmHg 78%
    09:00 +10°C° 0 mm 4 mps 735 mmHg 74%
    10:00 +11°C° 0 mm 4 mps 736 mmHg 70%
    11:00 +13°C° 0 mm 4 mps 736 mmHg 66%
    12:00 +14°C° 0 mm 4 mps 735 mmHg 63%
    13:00 +15°C° 0 mm 4 mps 735 mmHg 60%
    14:00 +15°C° 0 mm 4 mps 735 mmHg 58%
    15:00 +14°C° 0 mm 4 mps 735 mmHg 62%
    16:00 +13°C° 0 mm 3 mps 735 mmHg 67%
    17:00 +12°C° 0 mm 3 mps 735 mmHg 71%
    18:00 +12°C° 0.1 mm 3 mps 735 mmHg 74%
    19:00 +12°C° 0.1 mm 3 mps 736 mmHg 76%
    20:00 +11°C° 0.1 mm 3 mps 736 mmHg 79%
    21:00 +11°C° 0.1 mm 3 mps 736 mmHg 81%
    22:00 +11°C° 0.1 mm 3 mps 736 mmHg 83%
    23:00 +11°C° 0.1 mm 3 mps 736 mmHg 84%

    17 December, Sunday

    Time Temperature Precipitation Wind Pressure Humidity
    00:00 +10°C° 0.3 mm 3 mps 735 mmHg 86%
    01:00 +10°C° 0.3 mm 2 mps 735 mmHg 89%
    02:00 +10°C° 0.3 mm 2 mps 735 mmHg 91%
    03:00 +10°C° 0.4 mm 2 mps 734 mmHg 91%
    04:00 +9°C° 0.4 mm 2 mps 734 mmHg 92%
    05:00 +9°C° 0.4 mm 2 mps 733 mmHg 93%
    06:00 +9°C° 1.4 mm 2 mps 733 mmHg 93%
    07:00 +9°C° 1.4 mm 3 mps 733 mmHg 93%
    08:00 +9°C° 1.4 mm 3 mps 733 mmHg 93%
    09:00 +7°C° 1.9 mm 4 mps 733 mmHg 92%
    10:00 +7°C° 1.9 mm 5 mps 733 mmHg 92%
    11:00 +5°C° 1.9 mm 6 mps 733 mmHg 91%
    12:00 +4°C° 1.7 mm 6 mps 733 mmHg 90%
    13:00 +3°C° 1.7 mm 6 mps 734 mmHg 89%
    14:00 +2°C° 1.7 mm 6 mps 734 mmHg 88%
    15:00 +2°C° 0.2 mm 6 mps 735 mmHg 87%
    16:00 +2°C° 0.2 mm 6 mps 737 mmHg 86%
    17:00 +2°C° 0.2 mm 5 mps 738 mmHg 85%
    18:00 +2°C° 0.1 mm 6 mps 739 mmHg 83%
    19:00 +1°C° 0.1 mm 6 mps 740 mmHg 80%
    20:00 +1°C° 0.1 mm 6 mps 740 mmHg 77%
    21:00 +1°C° 0 mm 6 mps 741 mmHg 77%
    22:00 +1°C° 0 mm 6 mps 742 mmHg 76%
    23:00 0°C° 0 mm 5 mps 742 mmHg 76%
    Show more